Location: �terpigny
(49.8910°N, 2.9249°E)
Time: 03:56:17
(UTC+00:00)

Cosmos 614 Rocket - Pass Details

Date: 04 June 2022
Orbit: 732 x 764 km, 74.1° (Epoch: 05 July)

Event Time Altitude Azimuth Distance (km) Brightness Sun altitude
Rises 00:31:00 0° 334° (NNW) 3,226 8.1 -17.0°
Reaches altitude 10° 00:33:23 10° 331° (NNW) 2,300 7.2 -17.0°
Maximum altitude 00:38:32 63° 251° (WSW) 851 4.0 -16.8°
Enters shadow 00:41:16 28° 179° (S) 1,417 4.8 -16.7°
